Hourly Weather Kyurek

Today, 28 October, Wednesday

Time Temperature Precipitation Wind Pressure Humidity
00:00 +10°C° 0 mm 1 mps 677 mmHg 79%
01:00 +9°C° 0 mm 2 mps 677 mmHg 77%
02:00 +9°C° 0 mm 2 mps 677 mmHg 76%
03:00 +9°C° 0 mm 2 mps 678 mmHg 77%
04:00 +8°C° 0 mm 2 mps 677 mmHg 75%
05:00 +8°C° 0 mm 2 mps 677 mmHg 73%
06:00 +8°C° 0 mm 2 mps 677 mmHg 71%
07:00 +9°C° 0 mm 2 mps 678 mmHg 68%
08:00 +12°C° 0 mm 2 mps 678 mmHg 65%
09:00 +12°C° 0 mm 3 mps 678 mmHg 61%
10:00 +13°C° 0 mm 3 mps 678 mmHg 61%
11:00 +13°C° 0 mm 3 mps 678 mmHg 60%
12:00 +14°C° 0 mm 4 mps 678 mmHg 60%
13:00 +14°C° 0 mm 3 mps 678 mmHg 63%
14:00 +13°C° 0 mm 3 mps 677 mmHg 66%
15:00 +13°C° 0 mm 3 mps 677 mmHg 70%
16:00 +12°C° 0 mm 3 mps 677 mmHg 73%
17:00 +12°C° 0 mm 2 mps 677 mmHg 77%
18:00 +12°C° 0 mm 2 mps 676 mmHg 81%
19:00 +12°C° 0 mm 2 mps 676 mmHg 78%
20:00 +12°C° 0 mm 1 mps 676 mmHg 76%
21:00 +12°C° 0 mm 1 mps 676 mmHg 74%
22:00 +12°C° 0 mm 1 mps 676 mmHg 71%
23:00 +11°C° 0 mm 1 mps 676 mmHg 68%

Tomorrow, 29 October, Thursday

Time Temperature Precipitation Wind Pressure Humidity
00:00 +11°C° 0 mm 1 mps 675 mmHg 65%
01:00 +11°C° 0 mm 1 mps 675 mmHg 62%
02:00 +11°C° 0 mm 1 mps 675 mmHg 60%
03:00 +11°C° 0 mm 1 mps 674 mmHg 58%
04:00 +10°C° 0 mm 2 mps 674 mmHg 55%
05:00 +10°C° 0 mm 2 mps 674 mmHg 53%
06:00 +10°C° 0 mm 2 mps 674 mmHg 51%
07:00 +13°C° 0 mm 1 mps 675 mmHg 49%
08:00 +15°C° 0 mm 1 mps 675 mmHg 47%
09:00 +16°C° 0 mm 1 mps 675 mmHg 45%
10:00 +18°C° 0 mm 1 mps 675 mmHg 45%
11:00 +19°C° 0 mm 1 mps 675 mmHg 44%
12:00 +19°C° 0 mm 2 mps 675 mmHg 44%
13:00 +19°C° 0 mm 2 mps 675 mmHg 47%
14:00 +18°C° 0 mm 2 mps 675 mmHg 50%
15:00 +18°C° 0 mm 2 mps 674 mmHg 54%
16:00 +18°C° 0 mm 1 mps 674 mmHg 59%
17:00 +15°C° 0 mm 1 mps 674 mmHg 65%
18:00 +13°C° 0 mm 1 mps 673 mmHg 70%
19:00 +13°C° 0 mm 1 mps 673 mmHg 68%
20:00 +13°C° 0 mm 1 mps 673 mmHg 65%
21:00 +13°C° 0 mm 2 mps 674 mmHg 63%
22:00 +13°C° 0 mm 2 mps 673 mmHg 60%
23:00 +13°C° 0 mm 2 mps 673 mmHg 57%

Day after tomorrow, 30 October, Friday

Time Temperature Precipitation Wind Pressure Humidity
00:00 +13°C° 0 mm 2 mps 673 mmHg 54%
01:00 +13°C° 0 mm 2 mps 672 mmHg 52%
02:00 +14°C° 0 mm 2 mps 672 mmHg 50%
03:00 +14°C° 0 mm 2 mps 672 mmHg 49%
04:00 +13°C° 0 mm 2 mps 672 mmHg 50%
05:00 +13°C° 0 mm 2 mps 672 mmHg 51%
06:00 +13°C° 0 mm 2 mps 671 mmHg 52%
07:00 +15°C° 0 mm 2 mps 672 mmHg 48%
08:00 +18°C° 0 mm 1 mps 673 mmHg 45%
09:00 +20°C° 0 mm 1 mps 673 mmHg 42%
10:00 +19°C° 0 mm 2 mps 673 mmHg 45%
11:00 +19°C° 0 mm 3 mps 673 mmHg 49%
12:00 +19°C° 0 mm 4 mps 673 mmHg 53%
13:00 +18°C° 0 mm 3 mps 673 mmHg 58%
14:00 +17°C° 0 mm 3 mps 673 mmHg 63%
15:00 +16°C° 0 mm 2 mps 672 mmHg 68%
16:00 +15°C° 0 mm 2 mps 672 mmHg 72%
17:00 +14°C° 0 mm 1 mps 672 mmHg 77%
18:00 +12°C° 0 mm 1 mps 672 mmHg 81%
19:00 +12°C° 0 mm 1 mps 672 mmHg 78%
20:00 +12°C° 0 mm 1 mps 672 mmHg 75%
21:00 +12°C° 0 mm 1 mps 672 mmHg 72%
22:00 +12°C° 0 mm 1 mps 672 mmHg 70%
23:00 +12°C° 0 mm 1 mps 672 mmHg 67%

31 October, Saturday

Time Temperature Precipitation Wind Pressure Humidity
00:00 +12°C° 0 mm 1 mps 672 mmHg 65%
01:00 +12°C° 0 mm 1 mps 672 mmHg 63%
02:00 +13°C° 0 mm 1 mps 672 mmHg 62%
03:00 +13°C° 0 mm 2 mps 672 mmHg 60%
04:00 +13°C° 0 mm 2 mps 672 mmHg 60%
05:00 +13°C° 0 mm 2 mps 672 mmHg 61%
06:00 +13°C° 0 mm 2 mps 672 mmHg 61%
07:00 +14°C° 0 mm 2 mps 672 mmHg 59%
08:00 +15°C° 0 mm 1 mps 672 mmHg 57%
09:00 +18°C° 0 mm 1 mps 673 mmHg 55%
10:00 +19°C° 0 mm 1 mps 673 mmHg 53%
11:00 +18°C° 0 mm 2 mps 673 mmHg 51%
12:00 +19°C° 0 mm 2 mps 673 mmHg 49%
13:00 +19°C° 0 mm 2 mps 673 mmHg 53%
14:00 +18°C° 0 mm 2 mps 672 mmHg 56%
15:00 +18°C° 0 mm 2 mps 672 mmHg 60%
16:00 +16°C° 0 mm 1 mps 672 mmHg 63%
17:00 +15°C° 0 mm 1 mps 672 mmHg 66%
18:00 +14°C° 0 mm 1 mps 672 mmHg 69%
19:00 +14°C° 0 mm 1 mps 672 mmHg 68%
20:00 +13°C° 0 mm 1 mps 672 mmHg 67%
21:00 +13°C° 0 mm 1 mps 672 mmHg 66%
22:00 +13°C° 0 mm 2 mps 672 mmHg 64%
23:00 +13°C° 0 mm 2 mps 672 mmHg 62%

1 November, Sunday

Time Temperature Precipitation Wind Pressure Humidity
00:00 +14°C° 0 mm 2 mps 672 mmHg 60%
01:00 +14°C° 0 mm 2 mps 672 mmHg 59%
02:00 +14°C° 0 mm 2 mps 672 mmHg 58%
03:00 +14°C° 0 mm 2 mps 672 mmHg 57%
04:00 +14°C° 0 mm 2 mps 672 mmHg 56%
05:00 +14°C° 0 mm 2 mps 672 mmHg 56%
06:00 +13°C° 0 mm 2 mps 672 mmHg 55%
07:00 +14°C° 0 mm 2 mps 673 mmHg 57%
08:00 +15°C° 0 mm 2 mps 674 mmHg 59%
09:00 +16°C° 0 mm 2 mps 674 mmHg 61%
10:00 +16°C° 0 mm 2 mps 674 mmHg 61%
11:00 +17°C° 0 mm 2 mps 674 mmHg 60%
12:00 +17°C° 0 mm 2 mps 674 mmHg 60%
13:00 +17°C° 0 mm 2 mps 674 mmHg 61%
14:00 +17°C° 0 mm 2 mps 674 mmHg 62%
15:00 +17°C° 0 mm 2 mps 674 mmHg 63%
16:00 +15°C° 0 mm 1 mps 674 mmHg 66%
17:00 +14°C° 0 mm 1 mps 674 mmHg 69%
18:00 +13°C° 0 mm 1 mps 674 mmHg 72%
19:00 +13°C° 0 mm 1 mps 674 mmHg 70%
20:00 +12°C° 0 mm 1 mps 674 mmHg 68%
21:00 +12°C° 0 mm 1 mps 674 mmHg 65%
22:00 +12°C° 0 mm 1 mps 674 mmHg 63%
23:00 +12°C° 0 mm 1 mps 674 mmHg 61%

2 November, Monday

Time Temperature Precipitation Wind Pressure Humidity
00:00 +12°C° 0 mm 1 mps 674 mmHg 58%
01:00 +12°C° 0 mm 1 mps 674 mmHg 57%
02:00 +12°C° 0 mm 1 mps 674 mmHg 56%
03:00 +12°C° 0 mm 1 mps 675 mmHg 55%
04:00 +12°C° 0 mm 1 mps 675 mmHg 55%
05:00 +12°C° 0 mm 1 mps 675 mmHg 54%
06:00 +12°C° 0 mm 1 mps 675 mmHg 53%
07:00 +13°C° 0 mm 1 mps 676 mmHg 50%
08:00 +15°C° 0 mm 1 mps 676 mmHg 46%
09:00 +16°C° 0 mm 0 mps 677 mmHg 43%
10:00 +19°C° 0 mm 1 mps 677 mmHg 42%
11:00 +20°C° 0 mm 1 mps 677 mmHg 41%
12:00 +20°C° 0 mm 2 mps 677 mmHg 40%
13:00 +19°C° 0 mm 2 mps 677 mmHg 43%
14:00 +19°C° 0 mm 2 mps 677 mmHg 47%
15:00 +18°C° 0 mm 2 mps 677 mmHg 50%
16:00 +18°C° 0 mm 1 mps 676 mmHg 55%
17:00 +15°C° 0 mm 1 mps 676 mmHg 60%
18:00 +12°C° 0 mm 0 mps 676 mmHg 66%
19:00 +12°C° 0 mm 0 mps 676 mmHg 64%
20:00 +12°C° 0 mm 0 mps 676 mmHg 63%
21:00 +12°C° 0 mm 0 mps 676 mmHg 62%
22:00 +12°C° 0 mm 0 mps 676 mmHg 60%
23:00 +12°C° 0 mm 0 mps 676 mmHg 58%
Show more

We Need Your Consent

Meteoprog and our Service Providers may store and access personal data such as cookies, device identifiers or other similar technologies on your device and process such data to personalise content and ads, as well as provide social media features and to analyse the traffic.

  • Store and/or access information on your device

    Cookies, device identifiers or other information can be stored or accessed on your device for the purposes indicated above.

  • Personalised ads and content, ad and content measurement, audience insights, and products development

    Ads and content can be personalised based on a profile. More data can be added to better personalise ads and content. Ad and content performance can be measured. Insights about the audience who saw the ads and content can be derived. Such data can be used to develop or improve user’s experience, systems and software.

By clicking ‘I Agree’ you will allow the use of indicated cookies, device identifiers, web beacons or other similar technologies. Your settings can be changed in the browser on your device.

For certain purposes, legitimate interests may be relied on, rather than consent. You can read more about this in our Privacy and Cookie Policy.